Time,TemperatureF,DewpointF,PressureIn,WindDirection,WindDirectionDegrees,WindSpeedMPH,WindSpeedGustMPH,Humidity,HourlyPrecipIn,Conditions,Clouds,dailyrainin,SoftwareType,DateUTC
2013-07-07 00:00:00,64.0,-99.9,-100.00,NNE,29,5.0,9.0,-999,-99.99,,,-99.99,,2013-07-07 06:00:00,
2013-07-07 00:32:00,64.0,-99.9,-100.00,NNE,29,5.0,9.0,-999,-99.99,,,-99.99,,2013-07-07 06:32:00,
2013-07-07 00:43:00,64.0,-99.9,-100.00,NNE,29,5.0,9.0,-999,-99.99,,,-99.99,,2013-07-07 06:43:00,
2013-07-07 00:52:00,64.0,-99.9,-100.00,NNE,29,5.0,9.0,-999,-99.99,,,-99.99,,2013-07-07 06:52:00,
2013-07-07 01:00:00,60.0,-99.9,-100.00,SSE,166,5.0,5.0,-999,-99.99,,,-99.99,,2013-07-07 07:00:00,
2013-07-07 01:23:00,60.0,-99.9,-100.00,SSE,166,5.0,5.0,-999,-99.99,,,-99.99,,2013-07-07 07:23:00,
2013-07-07 01:34:00,60.0,-99.9,-100.00,SSE,166,5.0,5.0,-999,-99.99,,,-99.99,,2013-07-07 07:34:00,
2013-07-07 01:44:00,60.0,-99.9,-100.00,SSE,166,5.0,5.0,-999,-99.99,,,-99.99,,2013-07-07 07:44:00,
2013-07-07 01:53:00,60.0,-99.9,-100.00,SSE,166,5.0,5.0,-999,-99.99,,,-99.99,,2013-07-07 07:53:00,
2013-07-07 02:00:00,60.0,-99.9,-100.00,SSW,212,6.0,7.0,-999,-99.99,,,-99.99,,2013-07-07 08:00:00,
2013-07-07 02:22:00,60.0,-99.9,-100.00,SSW,212,6.0,7.0,-999,-99.99,,,-99.99,,2013-07-07 08:22:00,
2013-07-07 02:34:00,60.0,-99.9,-100.00,SSW,212,6.0,7.0,-999,-99.99,,,-99.99,,2013-07-07 08:34:00,
2013-07-07 02:44:00,60.0,-99.9,-100.00,SSW,212,6.0,7.0,-999,-99.99,,,-99.99,,2013-07-07 08:44:00,
2013-07-07 02:53:00,60.0,-99.9,-100.00,SSW,212,6.0,7.0,-999,-99.99,,,-99.99,,2013-07-07 08:53:00,
2013-07-07 03:00:00,57.0,-99.9,-100.00,ESE,115,2.0,7.0,-999,-99.99,,,-99.99,,2013-07-07 09:00:00,
2013-07-07 03:22:00,57.0,-99.9,-100.00,ESE,115,2.0,7.0,-999,-99.99,,,-99.99,,2013-07-07 09:22:00,
2013-07-07 03:34:00,57.0,-99.9,-100.00,ESE,115,2.0,7.0,-999,-99.99,,,-99.99,,2013-07-07 09:34:00,
2013-07-07 03:43:00,57.0,-99.9,-100.00,ESE,115,2.0,7.0,-999,-99.99,,,-99.99,,2013-07-07 09:43:00,
2013-07-07 03:53:00,57.0,-99.9,-100.00,ESE,115,2.0,7.0,-999,-99.99,,,-99.99,,2013-07-07 09:53:00,
2013-07-07 04:00:00,58.0,-99.9,-100.00,West,278,4.0,6.0,-999,-99.99,,,-99.99,,2013-07-07 10:00:00,
2013-07-07 04:32:00,58.0,-99.9,-100.00,West,278,4.0,6.0,-999,-99.99,,,-99.99,,2013-07-07 10:32:00,
2013-07-07 04:44:00,58.0,-99.9,-100.00,West,278,4.0,6.0,-999,-99.99,,,-99.99,,2013-07-07 10:44:00,
2013-07-07 04:52:00,58.0,-99.9,-100.00,West,278,4.0,6.0,-999,-99.99,,,-99.99,,2013-07-07 10:52:00,
2013-07-07 05:00:00,56.0,-99.9,-100.00,WSW,252,4.0,5.0,-999,-99.99,,,-99.99,,2013-07-07 11:00:00,
2013-07-07 05:23:00,56.0,-99.9,-100.00,WSW,252,4.0,5.0,-999,-99.99,,,-99.99,,2013-07-07 11:23:00,
2013-07-07 05:34:00,56.0,-99.9,-100.00,WSW,252,4.0,5.0,-999,-99.99,,,-99.99,,2013-07-07 11:34:00,
2013-07-07 05:43:00,56.0,-99.9,-100.00,WSW,252,4.0,5.0,-999,-99.99,,,-99.99,,2013-07-07 11:43:00,
2013-07-07 05:53:00,56.0,-99.9,-100.00,WSW,252,4.0,5.0,-999,-99.99,,,-99.99,,2013-07-07 11:53:00,
2013-07-07 06:00:00,56.0,-99.9,-100.00,West,271,4.0,5.0,-999,-99.99,,,-99.99,,2013-07-07 12:00:00,
2013-07-07 06:22:00,56.0,-99.9,-100.00,West,271,4.0,5.0,-999,-99.99,,,-99.99,,2013-07-07 12:22:00,
2013-07-07 06:34:00,56.0,-99.9,-100.00,West,271,4.0,5.0,-999,-99.99,,,-99.99,,2013-07-07 12:34:00,
2013-07-07 06:43:00,56.0,-99.9,-100.00,West,271,4.0,5.0,-999,-99.99,,,-99.99,,2013-07-07 12:43:00,
2013-07-07 06:52:00,56.0,-99.9,-100.00,West,271,4.0,5.0,-999,-99.99,,,-99.99,,2013-07-07 12:52:00,
2013-07-07 07:00:00,61.0,-99.9,-100.00,SSW,198,4.0,5.0,-999,-99.99,,,-99.99,,2013-07-07 13:00:00,
2013-07-07 07:22:00,61.0,-99.9,-100.00,SSW,198,4.0,5.0,-999,-99.99,,,-99.99,,2013-07-07 13:22:00,
2013-07-07 07:34:00,61.0,-99.9,-100.00,SSW,198,4.0,5.0,-999,-99.99,,,-99.99,,2013-07-07 13:34:00,
2013-07-07 07:43:00,61.0,-99.9,-100.00,SSW,198,4.0,5.0,-999,-99.99,,,-99.99,,2013-07-07 13:43:00,
2013-07-07 07:53:00,61.0,-99.9,-100.00,SSW,198,4.0,5.0,-999,-99.99,,,-99.99,,2013-07-07 13:53:00,
2013-07-07 08:00:00,68.0,-99.9,-100.00,WNW,291,0.0,1.0,-999,-99.99,,,-99.99,,2013-07-07 14:00:00,
2013-07-07 08:43:00,68.0,-99.9,-100.00,WNW,291,0.0,1.0,-999,-99.99,,,-99.99,,2013-07-07 14:43:00,
2013-07-07 08:53:00,68.0,-99.9,-100.00,WNW,291,0.0,1.0,-999,-99.99,,,-99.99,,2013-07-07 14:53:00,
2013-07-07 09:00:00,69.0,-99.9,-100.00,North,7,0.0,2.0,-999,-99.99,,,-99.99,,2013-07-07 15:00:00,
2013-07-07 09:34:00,69.0,-99.9,-100.00,North,7,0.0,2.0,-999,-99.99,,,-99.99,,2013-07-07 15:34:00,
2013-07-07 09:43:00,69.0,-99.9,-100.00,North,7,0.0,2.0,-999,-99.99,,,-99.99,,2013-07-07 15:43:00,
2013-07-07 09:52:00,69.0,-99.9,-100.00,North,7,0.0,2.0,-999,-99.99,,,-99.99,,2013-07-07 15:52:00,
2013-07-07 10:00:00,72.0,-99.9,-100.00,North,8,2.0,4.0,-999,-99.99,,,-99.99,,2013-07-07 16:00:00,
2013-07-07 10:34:00,72.0,-99.9,-100.00,North,8,2.0,4.0,-999,-99.99,,,-99.99,,2013-07-07 16:34:00,
2013-07-07 10:43:00,72.0,-99.9,-100.00,North,8,2.0,4.0,-999,-99.99,,,-99.99,,2013-07-07 16:43:00,
2013-07-07 10:53:00,72.0,-99.9,-100.00,North,8,2.0,4.0,-999,-99.99,,,-99.99,,2013-07-07 16:53:00,
2013-07-07 11:00:00,76.0,-99.9,-100.00,ENE,64,1.0,3.0,-999,-99.99,,,-99.99,,2013-07-07 17:00:00,
2013-07-07 11:22:00,76.0,-99.9,-100.00,ENE,64,1.0,3.0,-999,-99.99,,,-99.99,,2013-07-07 17:22:00,
2013-07-07 11:34:00,76.0,-99.9,-100.00,ENE,64,1.0,3.0,-999,-99.99,,,-99.99,,2013-07-07 17:34:00,
2013-07-07 11:43:00,76.0,-99.9,-100.00,ENE,64,1.0,3.0,-999,-99.99,,,-99.99,,2013-07-07 17:43:00,
2013-07-07 11:53:00,76.0,-99.9,-100.00,ENE,64,1.0,3.0,-999,-99.99,,,-99.99,,2013-07-07 17:53:00,
2013-07-07 12:00:00,80.0,-99.9,-100.00,NE,48,5.0,7.0,-999,-99.99,,,-99.99,,2013-07-07 18:00:00,
2013-07-07 12:33:00,80.0,-99.9,-100.00,NE,48,5.0,7.0,-999,-99.99,,,-99.99,,2013-07-07 18:33:00,
2013-07-07 12:43:00,80.0,-99.9,-100.00,NE,48,5.0,7.0,-999,-99.99,,,-99.99,,2013-07-07 18:43:00,
2013-07-07 12:53:00,80.0,-99.9,-100.00,NE,48,5.0,7.0,-999,-99.99,,,-99.99,,2013-07-07 18:53:00,
2013-07-07 13:00:00,84.0,-99.9,-100.00,ENE,78,8.0,11.0,-999,-99.99,,,-99.99,,2013-07-07 19:00:00,
2013-07-07 13:43:00,84.0,-99.9,-100.00,ENE,78,8.0,11.0,-999,-99.99,,,-99.99,,2013-07-07 19:43:00,
2013-07-07 13:54:00,84.0,-99.9,-100.00,ENE,78,8.0,11.0,-999,-99.99,,,-99.99,,2013-07-07 19:54:00,
2013-07-07 14:00:00,83.0,-99.9,-100.00,ESE,121,12.0,14.0,-999,-99.99,,,-99.99,,2013-07-07 20:00:00,
2013-07-07 14:22:00,83.0,-99.9,-100.00,ESE,121,12.0,14.0,-999,-99.99,,,-99.99,,2013-07-07 20:22:00,
2013-07-07 14:34:00,83.0,-99.9,-100.00,ESE,121,12.0,14.0,-999,-99.99,,,-99.99,,2013-07-07 20:34:00,
2013-07-07 14:42:00,83.0,-99.9,-100.00,ESE,121,12.0,14.0,-999,-99.99,,,-99.99,,2013-07-07 20:42:00,
2013-07-07 14:53:00,83.0,-99.9,-100.00,ESE,121,12.0,14.0,-999,-99.99,,,-99.99,,2013-07-07 20:53:00,
2013-07-07 15:00:00,83.0,-99.9,-100.00,NNW,342,8.0,10.0,-999,-99.99,,,-99.99,,2013-07-07 21:00:00,
2013-07-07 15:44:00,83.0,-99.9,-100.00,NNW,342,8.0,10.0,-999,-99.99,,,-99.99,,2013-07-07 21:44:00,
2013-07-07 15:53:00,83.0,-99.9,-100.00,NNW,342,8.0,10.0,-999,-99.99,,,-99.99,,2013-07-07 21:53:00,
2013-07-07 16:00:00,87.0,-99.9,-100.00,NNE,20,16.0,21.0,-999,-99.99,,,-99.99,,2013-07-07 22:00:00,
2013-07-07 16:44:00,87.0,-99.9,-100.00,NNE,20,16.0,21.0,-999,-99.99,,,-99.99,,2013-07-07 22:44:00,
2013-07-07 16:54:00,87.0,-99.9,-100.00,NNE,20,16.0,21.0,-999,-99.99,,,-99.99,,2013-07-07 22:54:00,
2013-07-07 17:00:00,73.0,-99.9,-100.00,NE,45,18.0,22.0,-999,-99.99,,,-99.99,,2013-07-07 23:00:00,
2013-07-07 17:43:00,73.0,-99.9,-100.00,NE,45,18.0,22.0,-999,-99.99,,,-99.99,,2013-07-07 23:43:00,
2013-07-07 17:53:00,73.0,-99.9,-100.00,NE,45,18.0,22.0,-999,-99.99,,,-99.99,,2013-07-07 23:53:00,
2013-07-07 18:00:00,71.0,-99.9,-100.00,NNW,335,5.0,7.0,-999,-99.99,,,-99.99,,2013-07-08 00:00:00,
2013-07-07 18:43:00,71.0,-99.9,-100.00,NNW,335,5.0,7.0,-999,-99.99,,,-99.99,,2013-07-08 00:43:00,
2013-07-07 18:53:00,71.0,-99.9,-100.00,NNW,335,5.0,7.0,-999,-99.99,,,-99.99,,2013-07-08 00:53:00,
2013-07-07 19:00:00,72.0,-99.9,-100.00,WSW,250,6.0,8.0,-999,-99.99,,,-99.99,,2013-07-08 01:00:00,
2013-07-07 19:43:00,72.0,-99.9,-100.00,WSW,250,6.0,8.0,-999,-99.99,,,-99.99,,2013-07-08 01:43:00,
2013-07-07 19:53:00,72.0,-99.9,-100.00,WSW,250,6.0,8.0,-999,-99.99,,,-99.99,,2013-07-08 01:53:00,
2013-07-07 20:00:00,67.0,-99.9,-100.00,SW,227,9.0,12.0,-999,-99.99,,,-99.99,,2013-07-08 02:00:00,
2013-07-07 20:43:00,67.0,-99.9,-100.00,SW,227,9.0,12.0,-999,-99.99,,,-99.99,,2013-07-08 02:43:00,
2013-07-07 20:52:00,67.0,-99.9,-100.00,SW,227,9.0,12.0,-999,-99.99,,,-99.99,,2013-07-08 02:52:00,
2013-07-07 21:00:00,66.0,-99.9,-100.00,North,350,4.0,5.0,-999,-99.99,,,-99.99,,2013-07-08 03:00:00,
2013-07-07 21:34:00,66.0,-99.9,-100.00,North,350,4.0,5.0,-999,-99.99,,,-99.99,,2013-07-08 03:34:00,
2013-07-07 21:43:00,66.0,-99.9,-100.00,North,350,4.0,5.0,-999,-99.99,,,-99.99,,2013-07-08 03:43:00,
2013-07-07 21:52:00,66.0,-99.9,-100.00,North,350,4.0,5.0,-999,-99.99,,,-99.99,,2013-07-08 03:52:00,
2013-07-07 22:00:00,63.0,-99.9,-100.00,SSW,209,7.0,9.0,-999,-99.99,,,-99.99,,2013-07-08 04:00:00,
2013-07-07 22:33:00,63.0,-99.9,-100.00,SSW,209,7.0,9.0,-999,-99.99,,,-99.99,,2013-07-08 04:33:00,
2013-07-07 22:43:00,63.0,-99.9,-100.00,SSW,209,7.0,9.0,-999,-99.99,,,-99.99,,2013-07-08 04:43:00,
2013-07-07 22:53:00,63.0,-99.9,-100.00,SSW,209,7.0,9.0,-999,-99.99,,,-99.99,,2013-07-08 04:53:00,
2013-07-07 23:00:00,64.0,-99.9,-100.00,SW,227,14.0,18.0,-999,-99.99,,,-99.99,,2013-07-08 05:00:00,
2013-07-07 23:34:00,64.0,-99.9,-100.00,SW,227,14.0,18.0,-999,-99.99,,,-99.99,,2013-07-08 05:34:00,
2013-07-07 23:43:00,64.0,-99.9,-100.00,SW,227,14.0,18.0,-999,-99.99,,,-99.99,,2013-07-08 05:43:00,
2013-07-07 23:53:00,64.0,-99.9,-100.00,SW,227,14.0,18.0,-999,-99.99,,,-99.99,,2013-07-08 05:53:00,